Location: Oshawa
(43.9000°N, 78.8670°W)
Time: 15:21:19
(UTC-04:00)

ITAMSAT 1 - Visible Passes

Search period start: 18 April 2015 00:00
Search period end: 28 April 2015 00:00
Orbit: 784 x 798 km, 98.7° (Epoch: 17 April)

Date Brightness Start Highest point End Pass type
(mag) Time Alt. Az. Time Alt. Az. Time Alt. Az.
18 Apr 7.9 03:35:53 10° NNE 03:41:02 63° ESE 03:41:50 55° SE visible
18 Apr 9.2 05:16:29 10° NNW 05:20:06 19° WNW 05:22:36 14° W visible
19 Apr 8.8 03:07:00 10° NNE 03:11:39 34° E 03:12:22 33° ESE visible
19 Apr 8.5 04:46:33 10° N 04:51:08 32° WNW 04:53:07 24° WSW visible
20 Apr 9.6 02:38:36 10° NE 02:42:07 19° E 02:42:53 18° ESE visible
20 Apr 7.8 04:16:59 10° N 04:22:04 57° WNW 04:23:38 40° SW visible
21 Apr 7.6 03:47:41 10° NNE 03:52:53 80° ESE 03:54:10 52° S visible
21 Apr 9.5 05:28:48 10° NNW 05:31:49 15° WNW 05:34:38 10° W visible
22 Apr 8.5 03:18:39 10° NNE 03:23:35 43° E 03:24:41 38° SE visible
22 Apr 8.8 04:58:37 10° N 05:02:54 26° WNW 05:05:26 18° WSW visible
23 Apr 9.3 02:50:01 10° NE 02:54:07 24° E 02:55:12 22° ESE visible
23 Apr 8.1 04:28:56 10° N 04:33:52 45° WNW 04:35:57 30° WSW visible
24 Apr 10.0 02:22:20 10° ENE 02:24:28 13° E 02:25:43 12° ESE visible
24 Apr 7.5 03:59:31 10° NNE 04:04:43 82° WNW 04:06:28 43° SSW visible
24 Apr 9.6 05:41:22 10° NNW 05:43:30 12° WNW 05:45:24 10° W visible
25 Apr 8.1 03:30:22 10° NNE 03:35:28 55° E 03:36:58 41° SSE visible
25 Apr 9.1 05:10:45 10° NNW 05:14:37 21° WNW 05:17:44 13° WSW visible
26 Apr 9.0 03:01:33 10° NE 03:06:03 30° E 03:07:29 26° ESE visible
26 Apr 8.4 04:40:54 10° N 04:45:38 36° WNW 04:48:14 22° WSW visible
27 Apr 9.8 02:33:20 10° NE 02:36:29 17° E 02:37:59 15° ESE visible
27 Apr 7.7 04:11:23 10° N 04:16:33 65° WNW 04:18:45 34° SW visible
